Date,TemperatureHighF,TemperatureAvgF,TemperatureLowF,DewpointHighF,DewpointAvgF,DewpointLowF,HumidityHigh,HumidityAvg,HumidityLow,PressureMaxIn,PressureMinIn,WindSpeedMaxMPH,WindSpeedAvgMPH,GustSpeedMaxMPH,PrecipitationSumIn
2013-9-1,101,82,71,79,73,70,99,77,41,29.87,29.75,9,3,0,0.00
2013-9-2,106,84,70,79,73,66,99,75,28,29.91,29.77,11,4,0,0.00
2013-9-3,99,80,73,79,75,72,98,87,44,29.91,29.82,10,2,0,0.62
2013-9-4,103,83,70,79,74,70,99,80,42,29.98,29.87,12,2,0,0.00
2013-9-5,100,83,72,79,74,71,98,77,44,30.03,29.92,9,2,0,0.00
2013-9-6,98,81,72,79,74,71,98,81,43,30.03,29.89,7,2,0,0.09
2013-9-7,103,81,71,79,73,71,99,80,39,29.98,29.86,10,2,0,0.31
2013-9-8,96,81,66,77,70,66,99,74,41,29.94,29.83,10,2,0,0.16
2013-9-9,96,80,67,77,70,66,99,74,39,29.96,29.87,11,3,0,0.18
2013-9-10,96,81,68,77,72,68,99,77,45,30.03,29.93,10,3,0,0.00
2013-9-11,97,82,70,78,71,66,99,75,39,30.04,29.92,11,3,0,0.00
2013-9-12,100,82,67,75,67,59,99,67,27,29.98,29.83,9,2,0,0.00
2013-9-13,100,82,68,74,69,66,96,70,36,29.87,29.71,9,2,0,0.00
2013-9-14,98,86,73,74,71,67,98,63,42,29.90,29.79,9,4,0,0.00
2013-9-15,98,80,68,73,69,66,92,74,39,29.96,29.87,10,2,0,0.00
2013-9-16,99,82,68,78,70,66,99,73,38,29.99,29.90,11,3,0,0.00
2013-9-17,99,83,67,77,71,66,99,71,38,30.01,29.86,12,3,0,0.00
2013-9-18,98,82,70,79,73,69,98,77,42,29.96,29.84,10,4,0,0.00
2013-9-19,96,80,72,79,72,-100,99,80,50,29.94,29.82,12,-8,0,0.64
2013-9-20,86,77,74,82,74,-100,99,95,82,29.91,29.80,10,-12,0,0.00
2013-9-21,76,73,70,74,72,70,99,95,89,29.88,29.82,6,3,0,0.00
2013-9-22,85,73,65,69,62,56,96,70,38,29.94,29.85,9,3,0,0.00
2013-9-23,78,67,62,75,63,60,94,88,80,29.92,29.90,2,0,0,0.00
2013-9-24,93,81,70,80,75,69,99,84,59,29.94,29.87,8,2,0,0.00
2013-9-25,94,77,64,74,64,55,99,72,29,29.96,29.87,7,2,0,0.00
2013-9-26,95,76,59,69,64,59,99,72,35,30.04,29.92,5,1,0,0.00
2013-9-27,94,76,63,71,63,-100,99,72,43,30.09,29.92,8,-20,0,0.00
2013-9-28,88,75,67,76,71,66,99,88,65,29.99,29.89,8,3,0,0.02
2013-9-29,82,74,71,76,72,70,99,94,77,29.95,29.86,5,2,0,0.13
2013-9-30,79,74,71,77,73,71,99,96,88,29.89,29.80,6,2,0,0.01